カタログに戻る

KUIPER-00181

運用中通信LEO
NORAD 67137·PAYLOAD·🇺🇸 United States

打ち上げ Dec 15, 2025 から Cape Canaveral Space Force Station

Loading…

次のパス (今後24時間)

TLE

最新Source: CelesTrak SupGP

元期: Sep 14, 2026, 23:27 UTC

1 67137C 25301E   26257.97719907  .00002324  00000+0  30431-3 0  2577
2 67137  51.9025 321.1134 0000312  65.7137 357.1365 14.79921988    17

AllMySatでKUIPER-00181をリアルタイム追跡

Download on the App Store